Location: Unspecified
(44.0704°N, 88.6889°W)
Time: 04:42:41
(UTC+02:00)

Okean 3 - Pass Details

Date: 02 October 2020
Orbit: 575 x 602 km, 82.5° (Epoch: 20 October)

Event Time Altitude Azimuth Distance (km) Brightness Sun altitude
Rises 12:05:58 0° 172° (S) 2,833 6.9 -20.1°
Reaches altitude 10° 12:08:14 10° 167° (SSE) 1,933 6.1 -19.7°
Maximum altitude 12:12:19 47° 93° (E) 797 4.5 -19.0°
Drops below altitude 10° 12:16:26 10° 20° (NNE) 1,936 6.5 -18.3°
Sets 12:18:41 0° 15° (NNE) 2,838 7.3 -17.9°
